Weather in Edessa

Greece     40°48′02″N   22°02′59″E
temp.,
°C
wind,
m/s
gust,
m/s
humid.,
%
clouds,
%
prec.,
mm/h
press.,
hPa
HPBL,
m
24 june, thu
thu2400:00+25w22390 0.0 101815
03:00+24wsw22430 0.0 101815
06:00+23wsw33470 0.0 101831
09:00+29wsw22360 0.0 1017297
12:00+35ese14233 0.0 10171772
15:00+38nne16154 0.0 10154014
18:00+36nw3418100 0.0 10143124
21:00+23sw2267100 2.9 101919
25 june, fri
fri2500:00+23w435888 0.1 101835
03:00+22wsw435498 0.1 101737
06:00+22wsw33505 0.0 101525
09:00+28w01381 0.0 1016288
12:00+34e12262 0.0 10151144
15:00+37wsw141610 0.0 10133882
18:00+30nnw593182 0.0 1013480
21:00+26wsw44390 0.1 101450
26 june, sat
sat2600:00+25wsw44380 0.0 101450
03:00+24wsw33380 0.0 101334
06:00+23wsw33380 0.0 101434
09:00+29w23300 0.0 1014352
12:00+34w35200 0.0 10122479
15:00+37w461543 0.0 10104367
18:00+35wnw77191 0.0 10092336
21:00+24nw12490 0.0 101213
27 june, sun
sun2700:00+23wsw12430 0.0 101311
03:00+21w22510 0.0 101412
06:00+19wsw33570 0.0 101434
09:00+25w22440 0.0 1014423
12:00+30w02300 0.0 10132027
15:00+33w03191 0.0 10123130
18:00+33e13184 0.0 10113026
21:00+24ne22510 0.0 101317
28 june, mon
mon2800:00+21nnw12620 0.0 101614
03:00+20nw12660 0.0 101620
06:00+20w22640 0.0 101615
09:00+26ne01480 0.0 1017560
12:00+30e32350 0.0 10161835
15:00+34ese13237 0.0 10133135
18:00+32e54291 0.0 10131833
21:00+25ene335665 0.0 1015132